• In United Kingdom
  • List of Countries
  • For 7 days
  • Water Temperature
  • Satellite Maps
  • Weather Map
  • Weather Widgets
  • user-avatar
    Login

    Hourly Weather Darwin

    Today, 24 November, Friday

    Time Temperature Precipitation Wind Pressure Humidity
    00:00 +30°C° 0 mm 3 mps 755 mmHg 80%
    01:00 +29°C° 0 mm 3 mps 755 mmHg 81%
    02:00 +29°C° 0 mm 3 mps 755 mmHg 82%
    03:00 +29°C° 0 mm 1 mps 754 mmHg 83%
    04:00 +29°C° 0 mm 2 mps 755 mmHg 84%
    05:00 +29°C° 0 mm 2 mps 755 mmHg 85%
    06:00 +29°C° 0 mm 2 mps 755 mmHg 86%
    07:00 +30°C° 0 mm 2 mps 755 mmHg 77%
    08:00 +33°C° 0 mm 3 mps 755 mmHg 68%
    09:00 +35°C° 0 mm 2 mps 756 mmHg 62%
    10:00 +36°C° 0 mm 2 mps 756 mmHg 56%
    11:00 +38°C° 0 mm 3 mps 755 mmHg 49%
    12:00 +39°C° 0 mm 3 mps 755 mmHg 43%
    13:00 +39°C° 0.1 mm 3 mps 754 mmHg 44%
    14:00 +39°C° 0.1 mm 3 mps 754 mmHg 44%
    15:00 +38°C° 0.1 mm 4 mps 754 mmHg 45%
    16:00 +37°C° 0.3 mm 4 mps 754 mmHg 49%
    17:00 +36°C° 0.3 mm 4 mps 754 mmHg 53%
    18:00 +35°C° 0.3 mm 4 mps 754 mmHg 58%
    19:00 +34°C° 1.4 mm 4 mps 754 mmHg 65%
    20:00 +32°C° 1.4 mm 4 mps 755 mmHg 71%
    21:00 +30°C° 1.4 mm 4 mps 755 mmHg 78%
    22:00 +30°C° 1.4 mm 3 mps 755 mmHg 80%
    23:00 +30°C° 1.4 mm 3 mps 755 mmHg 81%

    Tomorrow, 25 November, Saturday

    Time Temperature Precipitation Wind Pressure Humidity
    00:00 +29°C° 1.4 mm 2 mps 755 mmHg 83%
    01:00 +29°C° 1.2 mm 2 mps 755 mmHg 83%
    02:00 +29°C° 1.2 mm 2 mps 755 mmHg 84%
    03:00 +29°C° 1.2 mm 1 mps 755 mmHg 84%
    04:00 +29°C° 0.3 mm 1 mps 755 mmHg 84%
    05:00 +29°C° 0.3 mm 2 mps 756 mmHg 84%
    06:00 +29°C° 0.3 mm 2 mps 756 mmHg 84%
    07:00 +30°C° 0 mm 2 mps 756 mmHg 77%
    08:00 +32°C° 0 mm 2 mps 756 mmHg 69%
    09:00 +34°C° 0 mm 2 mps 757 mmHg 62%
    10:00 +35°C° 0 mm 2 mps 756 mmHg 57%
    11:00 +37°C° 0 mm 2 mps 756 mmHg 51%
    12:00 +38°C° 0 mm 2 mps 755 mmHg 46%
    13:00 +38°C° 0 mm 3 mps 755 mmHg 46%
    14:00 +38°C° 0 mm 3 mps 754 mmHg 47%
    15:00 +37°C° 0 mm 3 mps 754 mmHg 47%
    16:00 +37°C° 0.1 mm 4 mps 754 mmHg 50%
    17:00 +36°C° 0.1 mm 4 mps 754 mmHg 52%
    18:00 +36°C° 0.1 mm 4 mps 754 mmHg 54%
    19:00 +35°C° 0.1 mm 4 mps 754 mmHg 59%
    20:00 +34°C° 0.1 mm 4 mps 755 mmHg 63%
    21:00 +33°C° 0.1 mm 4 mps 755 mmHg 67%
    22:00 +32°C° 0 mm 4 mps 755 mmHg 69%
    23:00 +32°C° 0 mm 4 mps 755 mmHg 71%

    Day after tomorrow, 26 November, Sunday

    Time Temperature Precipitation Wind Pressure Humidity
    00:00 +31°C° 0 mm 3 mps 755 mmHg 73%
    01:00 +30°C° 0.3 mm 3 mps 755 mmHg 76%
    02:00 +30°C° 0.3 mm 3 mps 755 mmHg 78%
    03:00 +29°C° 0.3 mm 2 mps 754 mmHg 80%
    04:00 +29°C° 0.8 mm 2 mps 755 mmHg 82%
    05:00 +29°C° 0.8 mm 2 mps 755 mmHg 83%
    06:00 +29°C° 0.8 mm 1 mps 756 mmHg 84%
    07:00 +30°C° 0.6 mm 1 mps 756 mmHg 77%
    08:00 +32°C° 0.6 mm 1 mps 756 mmHg 69%
    09:00 +33°C° 0.6 mm 1 mps 756 mmHg 62%
    10:00 +35°C° 0.1 mm 2 mps 756 mmHg 57%
    11:00 +37°C° 0.1 mm 2 mps 756 mmHg 51%
    12:00 +38°C° 0.1 mm 2 mps 755 mmHg 46%
    13:00 +38°C° 0 mm 2 mps 755 mmHg 45%
    14:00 +38°C° 0 mm 2 mps 754 mmHg 45%
    15:00 +38°C° 0 mm 2 mps 753 mmHg 45%
    16:00 +37°C° 0 mm 2 mps 753 mmHg 48%
    17:00 +36°C° 0 mm 2 mps 753 mmHg 50%
    18:00 +36°C° 0 mm 3 mps 753 mmHg 53%
    19:00 +35°C° 0 mm 3 mps 754 mmHg 58%
    20:00 +34°C° 0 mm 3 mps 754 mmHg 63%
    21:00 +32°C° 0 mm 4 mps 755 mmHg 67%
    22:00 +32°C° 0 mm 4 mps 754 mmHg 70%
    23:00 +31°C° 0 mm 3 mps 754 mmHg 73%

    27 November, Monday

    Time Temperature Precipitation Wind Pressure Humidity
    00:00 +30°C° 0 mm 3 mps 754 mmHg 75%
    01:00 +30°C° 0.3 mm 3 mps 754 mmHg 77%
    02:00 +30°C° 0.3 mm 2 mps 754 mmHg 79%
    03:00 +29°C° 0.3 mm 2 mps 753 mmHg 82%
    04:00 +29°C° 0.6 mm 2 mps 754 mmHg 82%
    05:00 +29°C° 0.6 mm 1 mps 754 mmHg 83%
    06:00 +29°C° 0.6 mm 1 mps 754 mmHg 84%
    07:00 +30°C° 0.1 mm 1 mps 755 mmHg 76%
    08:00 +32°C° 0.1 mm 2 mps 755 mmHg 68%
    09:00 +35°C° 0.1 mm 2 mps 755 mmHg 60%
    10:00 +36°C° 0.2 mm 2 mps 755 mmHg 56%
    11:00 +37°C° 0.2 mm 2 mps 755 mmHg 52%
    12:00 +38°C° 0.2 mm 2 mps 754 mmHg 47%
    13:00 +38°C° 0.1 mm 2 mps 754 mmHg 47%
    14:00 +38°C° 0.1 mm 2 mps 753 mmHg 46%
    15:00 +37°C° 0.1 mm 1 mps 752 mmHg 45%
    16:00 +37°C° 0 mm 2 mps 752 mmHg 47%
    17:00 +36°C° 0 mm 2 mps 752 mmHg 49%
    18:00 +36°C° 0 mm 2 mps 752 mmHg 51%
    19:00 +35°C° 0 mm 3 mps 753 mmHg 56%
    20:00 +34°C° 0 mm 3 mps 753 mmHg 61%
    21:00 +33°C° 0 mm 3 mps 754 mmHg 66%
    22:00 +31°C° 0.1 mm 3 mps 754 mmHg 69%
    23:00 +31°C° 0.1 mm 3 mps 754 mmHg 73%

    28 November, Tuesday

    Time Temperature Precipitation Wind Pressure Humidity
    00:00 +30°C° 0.1 mm 3 mps 754 mmHg 76%
    01:00 +30°C° 0.7 mm 3 mps 754 mmHg 79%
    02:00 +30°C° 0.7 mm 3 mps 753 mmHg 81%
    03:00 +29°C° 0.7 mm 2 mps 753 mmHg 84%
    04:00 +29°C° 0.3 mm 2 mps 753 mmHg 84%
    05:00 +29°C° 0.3 mm 3 mps 754 mmHg 85%
    06:00 +29°C° 0.3 mm 3 mps 754 mmHg 85%
    07:00 +30°C° 0 mm 2 mps 755 mmHg 76%
    08:00 +32°C° 0 mm 2 mps 755 mmHg 68%
    09:00 +35°C° 0 mm 2 mps 755 mmHg 60%
    10:00 +36°C° 0.1 mm 2 mps 755 mmHg 54%
    11:00 +37°C° 0.1 mm 2 mps 755 mmHg 49%
    12:00 +39°C° 0.1 mm 3 mps 754 mmHg 44%
    13:00 +38°C° 0.1 mm 3 mps 754 mmHg 44%
    14:00 +38°C° 0.1 mm 3 mps 753 mmHg 44%
    15:00 +38°C° 0.1 mm 2 mps 753 mmHg 44%
    16:00 +37°C° 0.2 mm 2 mps 753 mmHg 47%
    17:00 +36°C° 0.2 mm 2 mps 753 mmHg 50%
    18:00 +35°C° 0.2 mm 2 mps 753 mmHg 53%
    19:00 +35°C° 0.2 mm 3 mps 754 mmHg 57%
    20:00 +34°C° 0.2 mm 3 mps 754 mmHg 61%
    21:00 +33°C° 0.2 mm 3 mps 755 mmHg 64%
    22:00 +31°C° 0.2 mm 3 mps 755 mmHg 68%
    23:00 +31°C° 0.2 mm 3 mps 755 mmHg 72%

    29 November, Wednesday

    Time Temperature Precipitation Wind Pressure Humidity
    00:00 +30°C° 0.2 mm 3 mps 755 mmHg 75%
    01:00 +30°C° 0.8 mm 2 mps 755 mmHg 77%
    02:00 +30°C° 0.8 mm 2 mps 754 mmHg 79%
    03:00 +29°C° 0.8 mm 1 mps 754 mmHg 81%
    04:00 +29°C° 0.2 mm 1 mps 755 mmHg 81%
    05:00 +29°C° 0.2 mm 2 mps 755 mmHg 81%
    06:00 +29°C° 0.2 mm 2 mps 755 mmHg 82%
    07:00 +30°C° 0 mm 2 mps 756 mmHg 74%
    08:00 +32°C° 0 mm 2 mps 756 mmHg 66%
    09:00 +35°C° 0 mm 3 mps 756 mmHg 58%
    10:00 +36°C° 0 mm 3 mps 756 mmHg 53%
    11:00 +37°C° 0 mm 3 mps 755 mmHg 49%
    12:00 +40°C° 0 mm 4 mps 754 mmHg 44%
    13:00 +38°C° 0 mm 4 mps 754 mmHg 44%
    14:00 +38°C° 0 mm 4 mps 753 mmHg 44%
    15:00 +38°C° 0 mm 4 mps 753 mmHg 44%
    16:00 +37°C° 0 mm 4 mps 753 mmHg 47%
    17:00 +37°C° 0 mm 4 mps 753 mmHg 51%
    18:00 +36°C° 0 mm 4 mps 753 mmHg 54%
    19:00 +35°C° 0.1 mm 4 mps 754 mmHg 58%
    20:00 +34°C° 0.1 mm 4 mps 754 mmHg 62%
    21:00 +33°C° 0.1 mm 4 mps 755 mmHg 66%
    22:00 +33°C° 0.3 mm 4 mps 755 mmHg 70%
    23:00 +32°C° 0.3 mm 4 mps 755 mmHg 74%
    Show more